Regional Weather Roundup
Issued by NWS Northern Indiana

Home | Current Version | Previous Version | Graphics & Text | Print | Product List | Glossary On
Versions: 1 2 3 4 5 6 7 8 9 10 11 12 13 14 15 16 17 18 19 20 21 22 23 24 25 26 27 28 29 30 31 32 33 34 35 36 37 38 39 40 41 42 43 44 45 46 47 48 49 50
540
ASUS43 KIWX 010210
RWRIWX

KIWX WEATHER ROUNDUP
NATIONAL WEATHER SERVICE NORTHERN INDIANA
1000 PM EDT WED AUG 31 2016

NOTE: "FAIR" INDICATES FEW OR NO CLOUDS BELOW 12,000 FEET WITH NO
SIGNIFICANT WEATHER AND/OR OBSTRUCTIONS TO VISIBILITY.

* THESE STATIONS ARE NOT UNDER NWS QUALITY CONTROL. THEY ALSO MAY NOT
  REPORT WEATHER SUCH AS PRECIPITATION OR FOG.

INZ001>027-010300-
NORTHERN INDIANA

CITY           SKY/WX    TMP DP  RH WIND       PRES   REMARKS
GARY*          PTCLDY    72  59  64 N12G23    30.08R
VALPARAISO     CLOUDY    65  59  81 N5        30.08R
MICHIGAN CITY* CLEAR     68  61  77 CALM      30.07S
LAPORTE*       CLEAR     68  66  94 N12       30.08R
KNOX*          CLEAR     63  45  51 N6        30.05S
SOUTH BEND     CLEAR     65  61  87 N8        30.06R
GOSHEN         PTCLDY    66  61  84 N6        30.04R
MONTICELLO*    PTCLDY    64  57  78 N7        30.04S
LOGANSPORT*    CLOUDY    64  59  82 N8        30.05R
ROCHESTER*     CLOUDY    68  63  83 N5        30.05S
WARSAW*        PTCLDY    64  64 100 N6        30.04S
ANGOLA*        CLEAR     64  54  68 CALM      30.05R
FORT WAYNE     CLOUDY    72  64  76 NE13      30.03R
HUNTINGTON*    CLOUDY    70  68  95 N6        30.02R
PERU/GRISSOM   MOCLDY    66  60  81 N8        30.03R
MARION*        PTCLDY    68  63  83 N6        30.03R

$$
INZ028>050-010300-
CENTRAL INDIANA

CITY           SKY/WX    TMP DP  RH WIND       PRES   REMARKS
LAFAYETTE      CLEAR     65  60  84 N7        30.05R
KOKOMO*        MOCLDY    66  61  82 N8        30.04R
MUNCIE*        MOCLDY    72  69  90 N6        30.01R
INDIANAPOLIS   CLOUDY    72  61  68 N12       30.02R

$$
MIZ043>046-050>051-056>058-064>065-071>073-077>080-010300-
SOUTHWEST LOWER MICHIGAN

CITY           SKY/WX    TMP DP  RH WIND       PRES   REMARKS
BATTLE CREEK   CLEAR     63  59  87 N5        30.06R
BENTON HARBOR  CLEAR     70  60  70 VRB5      30.06R
COLDWATER*     CLEAR     65  58  78 N5        30.05R
HILLSDALE*     CLEAR     65  58  77 N3        30.05R
HOLLAND        CLEAR     68  54  60 N6        30.09R
GRAND RAPIDS   PTCLDY    66  54  65 N8        30.08R
KALAMAZOO      CLEAR     66  56  70 N7        30.07R
STURGIS*       CLEAR     64  60  85 N5        30.04R
THREE RIVERS*  FAIR      68  59  73 N5        30.06R

$$
OHZ001>008-015>018-024>025-010300-
NORTHWEST OHIO

CITY           SKY/WX    TMP DP  RH WIND       PRES   REMARKS
WAUSEON*       FAIR      66  57  72 N9        30.03R
DEFIANCE       PTCLDY    69  61  75 N6        30.03R
FINDLAY        CLOUDY    74  61  63 NE12      30.00R
TOLEDO EXPRESS CLOUDY    68  60  75 N8        30.02R
TOLEDO METCALF CLOUDY    74  61  63 NE6       30.03R
LIMA           MOCLDY    71  68  90 N8        30.01R

$$
AND FOR LAKE MICHIGAN COASTAL AND OPEN LAKE BUOY OBSERVATIONS

STATION/POSITION TEMP    WIND        PRES    VSBY  WAVE
                 AIR SEA DIR/SP/G                  HT/PER
                 (F)     (DEG/KT/KT) (MB)    (MI)  (FT/S)
CALUMET HARBOR    71                 1018.0
MICHIGAN CITY     70     350/ 21/ 24   N/A
BURNS HARBOR      71      20/ 16/ 22 1018.3S
SAINT JOSEPH      69      10/ 15/ 20 1018.6
SOUTH LAKE BUOY   72 74   30/ 19/ 23 1017.9R         6/ 7
4 MI NW BRIDGMAN  66 58  360/ 14/ 19 1017.8R         7/ 6
MICHIGAN CITY     70 61   10/ 17/ 23   N/A           8/ 7

$$
&&




USA.gov is the U.S. government's official web portal to all federal, state and local government web resources and services.